Regional Weather Roundup
Issued by NWS

Home | Current Version | Previous Version | Graphics & Text | Print | Product List | Glossary On
Versions: 1 2 3 4 5 6 7 8 9 10 11 12 13 14 15 16 17 18 19 20 21 22 23 24 25 26 27 28 29 30 31 32 33 34 35 36 37 38 39 40 41 42 43 44 45 46 47 48 49 50
000
ASUS43 KMPX 211301
RWRMN
WEATHER ROUNDUP FOR MINNESOTA
NATIONAL WEATHER SERVICE TWIN CITIES/CHANHASSEN MN
800 AM CDT MON AUG 21 2017


NOTE: "FAIR" INDICATES FEW OR NO CLOUDS BELOW 12,000 FEET WITH NO
SIGNIFICANT WEATHER AND/OR OBSTRUCTIONS TO VISIBILITY. N/A MEANS
CURRENT SKY AND/OR WEATHER CONDITIONS ARE NOT AVAILABLE.

MNZ060>063-068>070-211400-
   Twin Cities Metro

CITY           SKY/WX    TMP DP  RH WIND       PRES   REMARKS
TWIN CITIES    CLOUDY    68  59  73 SE5       30.04S
ST PAUL        CLOUDY    67  60  78 E6        30.05S
CRYSTAL        CLOUDY    65  58  78 NE3       30.03F
BLAINE         CLOUDY    64  63  94 SE6       30.04F
LAKEVILLE      LGT RAIN  64 N/A N/A CALM      30.04F
EDEN PRAIRIE   CLOUDY    66  61  84 CALM      30.04S
SOUTH ST PAUL  CLOUDY    67  59  75 NE3       30.04F
LAKE ELMO      PTSUNNY   64  61  88 CALM      30.07R
$$
MNZ001>005-007-008-013>017-022>024-027-028-211400-
   Northwest Minnesota

CITY           SKY/WX    TMP DP  RH WIND       PRES   REMARKS
BEMIDJI        CLOUDY    54  52  94 S5        30.06S
HALLOCK        PTSUNNY   55  52  88 SE5       30.00R
ROSEAU           N/A     55  50  82 CALM      30.03S
WARROAD        CLOUDY    55  50  82 SW5       30.03S
CROOKSTON      CLOUDY    57  54  88 CALM      30.04S
FOSSTON        CLOUDY    55  52  88 CALM      30.06R
DETROIT LAKES  CLOUDY    61  55  82 CALM      30.08R
MOORHEAD       DRIZZLE   59  55  88 SE9       30.02F
PARK RAPIDS    PTSUNNY   59  55  87 CALM      30.06R
MAHNOMEN       CLOUDY    58  55  89 CALM      30.05R
$$
MNZ006-009>011-018-025>026-211400-
   North Central Minnesota

CITY           SKY/WX    TMP DP  RH WIND       PRES   REMARKS
BAUDETTE       CLOUDY    53  48  83 CALM      30.03R
FLAG ISLAND    CLOUDY    63  45  51 W5        30.00S HAZE
INTL FALLS     MOSUNNY   51  47  86 S3        30.04S
WASKISH        MOSUNNY   54  52  94 S3        30.05R
BIG FORK       MOSUNNY   52  50  93 CALM      30.06F
LONGVILLE      CLOUDY    54  54 100 CALM      30.05F
GRAND RAPIDS   CLOUDY    56  55  97 S3        30.09F
CRANE LAKE     MOSUNNY   48  48 100 CALM      30.07S
ORR            MOSUNNY   52  48  87 CALM      30.04S
COOK           CLOUDY    48  48 100 CALM      30.08R
WALKER         FAIR      53  52  96 CALM      30.06S
$$
MNZ012-019>021-037-211400-
   Northeast Minnesota

CITY           SKY/WX    TMP DP  RH WIND       PRES   REMARKS
DULUTH         CLOUDY    62  57  83 CALM      30.07F
ELY            CLOUDY    52  50  93 CALM      30.07F
HIBBING        CLOUDY    49  48  97 CALM      30.08F
EVELETH        CLOUDY    53  50  91 CALM      30.09F
DULUTH HARBOR  CLOUDY    61  57  88 CALM      30.06F
TWO HARBORS    CLOUDY    61  55  82 CALM      30.05F
SILVER BAY     CLOUDY    52  52 100 CALM      30.06F
GRAND MARAIS     N/A     64  56  75 CALM      30.05R
G MARAIS ARPRT MOSUNNY   55  48  76 CALM      30.09S
$$
MNZ029>031-032-039>041-046>048-054>057-064-211400-
   West Central Minnesota

CITY           SKY/WX    TMP DP  RH WIND       PRES   REMARKS
FERGUS FALLS   LGT RAIN  59  59 100 SE3       30.07R
WHEATON        CLOUDY    57  55  94 N3        30.09R
MORRIS         PTSUNNY   61  57  88 E5        30.03S
ALEXANDRIA     PTSUNNY   62  56  80 E7        30.06S
ELBOW LAKE     LGT RAIN  60  56  87 N3        30.07R
WADENA         LGT RAIN  55  55 100 CALM      30.05R
GLENWOOD       PTSUNNY   61  57  88 E6        30.06R
APPLETON       MOSUNNY   61  55  82 NE7       30.01F
BENSON         MOSUNNY   61  55  82 E6        30.04F
ORTONVILLE     PTSUNNY   61  57  88 MISG      30.04R
MADISON        CLOUDY    63  63 100 N5        30.02S
WILLMAR        FAIR      64  61  88 E8        30.03F
$$
MNZ033>034-036-042>043-049>051-058-059-211400-
   Central Minnesota

CITY           SKY/WX    TMP DP  RH WIND       PRES   REMARKS
ST CLOUD       MOSUNNY   61  59  93 E5        30.06R
SAUK CENTRE    FAIR      60  57  89 E3        30.05F FOG
PAYNESVILLE    MOSUNNY   63  59  87 SE6       30.05F
AITKIN         CLOUDY    55  54  94 CALM      30.05F
PINE RIVER     CLOUDY    54  52  94 CALM      30.09S
BRAINERD       CLOUDY    58  57  97 CALM      30.06S
STAPLES        CLOUDY    55  55 100 CALM      30.05S
LONG PRAIRIE   PTSUNNY   57  55  94 CALM      30.05S
LITTLE FALLS   PTSUNNY   57  55  94 CALM      30.06S
LITCHFIELD     LGT RAIN  64  61  88 CALM      30.06R
BUFFALO        CLOUDY    63  58  84 CALM      30.06R
MAPLE LAKE     CLOUDY    64  62  91 E3        30.07R
HUTCHINSON     PTSUNNY   64  62  92 E5        30.05S
$$
MNZ037-044-045-052-053-211400-
   East Central Minnesota

CITY           SKY/WX    TMP DP  RH WIND       PRES   REMARKS
PRINCETON      CLOUDY    63  61  94 CALM      30.06S
MORA           MOSUNNY   55  55 100 CALM      30.07F
CAMBRIDGE      MOSUNNY   64  63  94 CALM      30.05F
RUSH CITY      CLOUDY    59  58  96 CALM      30.06F
MOOSE LAKE     CLOUDY    55  54  94 CALM      30.05R
HINCKLEY       PTSUNNY   57  57 100 CALM      30.06F
CLOQUET        CLOUDY    57  54  88 NW3       30.07S
MCGREGOR       CLOUDY    54  52  94 CALM      30.07F
$$
MNZ071>073-080-081-089-090-097-098-211400-
   Southwest Minnesota

CITY           SKY/WX    TMP DP  RH WIND       PRES   REMARKS
MONTEVIDEO     CLOUDY    61  61 100 SE5       30.01F
GRANITE FALLS  CLOUDY    65  63  93 NE7       30.01F
CANBY          TSTM      61  60  95 CALM      30.02S
MARSHALL       FOG       64  62  93 E6        30.00F VSB 1
REDWOOD FALLS  PTSUNNY   65  62  90 E6        30.01S
OLIVIA         CLOUDY    63  61  94 SE7       30.02R
PIPESTONE      CLOUDY    66  64  94 SE5       30.00F FOG
WINDOM         SUNNY     68  66  94 E6        30.00R
WORTHINGTON    CLOUDY    67  66  97 S6        30.00F
JACKSON        SUNNY     68  63  83 CALM      30.00S
TRACY          CLOUDY    64  64  98 CALM      30.00F
SLAYTON        CLOUDY    65  61  86 CALM      30.02S
$$
MNZ065>067-074>077-082>085-091>093-211400-
   South Central Minnesota

CITY           SKY/WX    TMP DP  RH WIND       PRES   REMARKS
MANKATO        CLOUDY    67  65  93 NE8       30.03F
NEW ULM        SUNNY     66  64  94 E8        30.02S
ST JAMES       SUNNY     68  66  94 E3        30.01F
FAIRMONT       SUNNY     69  64  84 SE10      29.99F
GLENCOE        LGT RAIN  65  65  98 CALM      30.03F
FARIBAULT      TSTM      66  64  94 NW5       30.06R
OWATONNA       MOSUNNY   70  64  83 NW8       30.05R
WASECA         CLOUDY    68  64  88 N5        30.06R
ALBERT LEA     CLOUDY    68  66  94 N3        30.03F
$$
MNZ078>079-086>088-094>096-211400-
   Southeast Minnesota

CITY           SKY/WX    TMP DP  RH WIND       PRES   REMARKS
ROCHESTER      CLOUDY    66  66 100 SE3       30.03F FOG
RED WING       CLOUDY    66  63  88 NW6       30.06R
STANTON        LGT RAIN  66  64  91 E5        30.03F
DODGE CENTER   CLOUDY    66  66 100 N12G17    30.05R
WINONA         CLOUDY    70  68  94 CALM      30.03F
AUSTIN         CLOUDY    66  64  94 CALM      30.02F FOG
PRESTON        CLOUDY    65  63  94 CALM      30.05R FOG
$$
ABBREVIATIONS USED IN REMARKS
   TC - TEMPERATURES IN CELSIUS
  WCI - WIND CHILL INDEX
   HX - HEAT INDEX
  VSB - VISIBILITY
$$




USA.gov is the U.S. government's official web portal to all federal, state and local government web resources and services.